contact:dominique.lefevre@mio.osupytheas.fr, maurice.libes@osupytheas.fr, didier.mallarino@osupytheas.fr
Project:EMSO http://www.emso-fr.org/EMSO-France
Depth: 2436.0 m
Title:EMSO Ligure Ouest : Data MII capteur AQUADOPP
Date,Latitude,Longitude,X_East,Y_North,Z_Up,Amplitude_X,Amplitude_Y,Amplitude_Z,Batterie,SoundSpeed,Heading,Pitch,Roll,Pressure,TIS,Speed,Direction
, degrees North, degrees East, m.s-1, m.s-1,m.s-1, 1, 1, 1, Volt, m.s-1, degree, degree, degree, dbar, degree_C, m.s-1, degree
2022-01-30T00:04:03,42.805,6.029,0.005,-0.024,0.011,107.0,106.0,104.0,13.4,1505.2,325.9,-0.7,1.8,2470.452,13.28,0.024,168.2
2022-01-30T00:07:03,42.805,6.029,-0.001,-0.014,-0.01,106.0,106.0,103.0,13.4,1505.2,326.4,-0.8,1.8,2470.384,13.28,0.014,184.1
2022-01-30T00:10:03,42.805,6.029,0.001,-0.04,-0.003,108.0,105.0,104.0,13.3,1505.2,325.9,-0.7,1.8,2470.397,13.28,0.04,178.6
2022-01-30T00:13:03,42.805,6.029,-0.006,-0.037,-0.028,108.0,107.0,104.0,13.3,1505.2,327.7,-0.8,1.8,2470.438,13.28,0.037,189.2
2022-01-30T00:16:03,42.805,6.029,0.001,-0.034,0.0,106.0,106.0,105.0,13.4,1505.2,327.6,-0.8,1.8,2470.399,13.28,0.034,178.3
2022-01-30T00:19:03,42.805,6.029,0.013,-0.047,-0.033,106.0,108.0,103.0,13.4,1505.2,328.7,-0.8,1.8,2470.42,13.28,0.048,164.5
2022-01-30T00:22:03,42.805,6.029,-0.022,-0.041,-0.041,107.0,105.0,104.0,13.3,1505.2,329.9,-0.8,1.8,2470.397,13.28,0.046,208.2
2022-01-30T00:25:03,42.805,6.029,-0.012,-0.011,0.001,106.0,106.0,103.0,13.3,1505.2,323.1,-0.8,1.8,2470.378,13.28,0.016,227.5
2022-01-30T00:28:03,42.805,6.029,0.003,-0.024,0.009,108.0,106.0,104.0,13.4,1505.2,331.7,-0.8,1.8,2470.388,13.28,0.024,172.9
2022-01-30T00:31:03,42.805,6.029,-0.004,-0.042,-0.004,107.0,106.0,104.0,13.3,1505.2,329.6,-0.7,1.8,2470.376,13.28,0.042,185.4
2022-01-30T00:34:03,42.805,6.029,0.015,-0.048,-0.002,106.0,106.0,103.0,13.3,1505.2,331.2,-0.8,1.8,2470.411,13.28,0.05,162.6
2022-01-30T00:37:03,42.805,6.029,0.013,-0.043,-0.013,106.0,107.0,104.0,13.4,1505.2,324.5,-0.8,1.8,2470.371,13.28,0.044,163.2
2022-01-30T00:40:03,42.805,6.029,0.005,-0.014,0.004,106.0,105.0,103.0,13.3,1505.2,326.3,-0.8,1.8,2470.336,13.28,0.014,160.4
2022-01-30T00:43:03,42.805,6.029,0.006,-0.035,0.007,107.0,106.0,104.0,13.4,1505.2,327.8,-0.8,1.8,2470.361,13.28,0.035,170.3
2022-01-30T00:46:03,42.805,6.029,0.011,-0.036,-0.004,106.0,106.0,104.0,13.3,1505.2,325.9,-0.8,1.9,2470.379,13.28,0.037,163.0
2022-01-30T00:49:03,42.805,6.029,-0.017,-0.032,-0.007,107.0,105.0,104.0,13.4,1505.2,328.5,-0.7,1.8,2470.375,13.28,0.036,208.0
2022-01-30T00:52:03,42.805,6.029,0.001,-0.014,-0.019,107.0,106.0,104.0,13.4,1505.2,327.0,-0.8,1.8,2470.38,13.28,0.014,175.9
2022-01-30T00:55:03,42.805,6.029,0.014,-0.059,-0.019,107.0,107.0,105.0,13.4,1505.2,330.7,-0.7,1.8,2470.371,13.28,0.06,166.7
2022-01-30T00:58:03,42.805,6.029,-0.01,-0.019,-0.011,107.0,105.0,104.0,13.4,1505.2,330.7,-0.7,1.8,2470.373,13.28,0.021,207.8
2022-01-30T01:04:03,42.805,6.029,-0.005,-0.048,-0.032,106.0,107.0,104.0,13.3,1505.2,328.3,-0.7,1.8,2470.36,13.28,0.048,185.9
2022-01-30T01:07:03,42.805,6.029,-0.003,-0.039,-0.001,106.0,105.0,103.0,13.4,1505.2,325.9,-0.8,1.8,2470.389,13.28,0.039,184.4
2022-01-30T01:10:03,42.805,6.029,0.007,-0.015,-0.006,106.0,105.0,104.0,13.3,1505.2,328.0,-0.8,1.8,2470.382,13.28,0.016,155.0
2022-01-30T01:13:03,42.805,6.029,0.014,-0.019,0.021,107.0,105.0,105.0,13.4,1505.2,330.3,-0.8,1.8,2470.353,13.28,0.023,143.6
2022-01-30T01:16:03,42.805,6.029,0.0,-0.015,0.016,107.0,106.0,103.0,13.4,1505.2,331.4,-0.7,1.8,2470.382,13.28,0.015,180.0
2022-01-30T01:19:03,42.805,6.029,0.005,-0.013,-0.023,107.0,106.0,104.0,13.4,1505.2,330.1,-0.7,1.8,2470.395,13.28,0.013,159.0
2022-01-30T01:22:03,42.805,6.029,-0.008,-0.007,-0.017,106.0,106.0,104.0,13.4,1505.2,324.9,-0.7,1.8,2470.378,13.28,0.01,228.8
2022-01-30T01:25:03,42.805,6.029,-0.001,-0.007,-0.01,106.0,107.0,103.0,13.4,1505.2,326.7,-0.8,1.8,2470.375,13.28,0.007,188.1
2022-01-30T01:28:03,42.805,6.029,0.008,-0.024,0.008,107.0,106.0,104.0,13.4,1505.2,326.8,-0.8,1.8,2470.404,13.28,0.025,161.6
2022-01-30T01:31:03,42.805,6.029,0.018,-0.027,-0.017,106.0,107.0,104.0,13.4,1505.2,328.3,-0.8,1.8,2470.386,13.28,0.032,146.3
2022-01-30T01:34:03,42.805,6.029,0.001,-0.02,-0.011,107.0,105.0,104.0,13.4,1505.2,325.1,-0.7,1.8,2470.396,13.28,0.02,177.1
2022-01-30T01:37:03,42.805,6.029,0.016,-0.024,-0.019,106.0,106.0,103.0,13.4,1505.2,325.9,-0.7,1.8,2470.388,13.28,0.028,146.3
2022-01-30T01:40:03,42.805,6.029,0.024,-0.036,-0.004,107.0,106.0,103.0,13.4,1505.2,331.0,-0.8,1.8,2470.42,13.28,0.043,146.3
2022-01-30T01:43:03,42.805,6.029,0.013,-0.009,0.003,106.0,107.0,104.0,13.4,1505.2,325.9,-0.7,1.8,2470.409,13.28,0.015,124.7
2022-01-30T01:46:03,42.805,6.029,0.025,-0.02,0.001,105.0,105.0,104.0,13.3,1505.2,327.7,-0.7,1.8,2470.354,13.28,0.032,128.7
2022-01-30T01:49:03,42.805,6.029,-0.006,-0.027,0.002,107.0,107.0,103.0,13.4,1505.2,324.7,-0.8,1.8,2470.339,13.28,0.027,192.5
2022-01-30T01:52:03,42.805,6.029,0.0,-0.023,-0.013,106.0,105.0,103.0,13.3,1505.2,327.9,-0.8,1.8,2470.333,13.28,0.023,180.0
2022-01-30T01:55:03,42.805,6.029,-0.021,-0.035,0.001,107.0,106.0,104.0,13.3,1505.2,323.8,-0.7,1.8,2470.315,13.28,0.04,211.0
2022-01-30T01:58:03,42.805,6.029,0.005,-0.017,0.011,107.0,107.0,104.0,13.4,1505.2,326.3,-0.8,1.8,2470.309,13.28,0.017,163.6
2022-01-30T02:04:03,42.805,6.029,-0.001,-0.028,-0.04,106.0,106.0,104.0,13.3,1505.2,325.1,-0.8,1.8,2470.248,13.28,0.028,182.0
2022-01-30T02:07:03,42.805,6.029,0.006,-0.032,-0.006,108.0,106.0,104.0,13.4,1505.2,328.4,-0.7,1.8,2470.237,13.28,0.032,169.4
2022-01-30T02:10:03,42.805,6.029,0.006,-0.024,-0.004,106.0,106.0,104.0,13.3,1505.2,324.3,-0.8,1.8,2470.249,13.28,0.024,166.0
2022-01-30T02:13:03,42.805,6.029,0.012,-0.025,0.021,107.0,106.0,104.0,13.3,1505.2,330.0,-0.8,1.8,2470.259,13.28,0.027,154.4
2022-01-30T02:16:03,42.805,6.029,-0.002,-0.047,0.008,106.0,106.0,103.0,13.4,1505.2,325.8,-0.7,1.8,2470.245,13.28,0.047,182.4
2022-01-30T02:19:03,42.805,6.029,-0.023,-0.021,0.0,105.0,106.0,104.0,13.4,1505.2,328.7,-0.8,1.8,2470.233,13.28,0.031,227.6
2022-01-30T02:22:03,42.805,6.029,0.005,-0.043,-0.029,106.0,105.0,103.0,13.4,1505.2,329.5,-0.8,1.8,2470.286,13.28,0.043,173.4
2022-01-30T02:25:03,42.805,6.029,0.007,-0.025,-0.005,107.0,104.0,104.0,13.4,1505.2,324.5,-0.7,1.8,2470.383,13.28,0.025,164.4
2022-01-30T02:28:03,42.805,6.029,0.012,-0.025,-0.042,106.0,104.0,104.0,13.4,1505.2,325.9,-0.8,1.8,2470.314,13.28,0.027,154.4
2022-01-30T02:31:03,42.805,6.029,0.013,-0.039,-0.013,106.0,107.0,104.0,13.3,1505.2,330.5,-0.8,1.8,2470.451,13.28,0.041,161.6
2022-01-30T02:34:03,42.805,6.029,-0.005,-0.035,-0.03,105.0,107.0,103.0,13.4,1505.2,329.5,-0.8,1.8,2470.496,13.28,0.035,188.1
2022-01-30T02:37:03,42.805,6.029,0.0,-0.029,-0.035,107.0,105.0,103.0,13.3,1505.2,326.6,-0.8,1.8,2470.682,13.28,0.028,180.0
2022-01-30T02:40:03,42.805,6.029,-0.001,-0.021,0.008,107.0,105.0,103.0,13.3,1505.2,326.6,-0.8,1.7,2470.855,13.28,0.021,182.7
2022-01-30T02:43:03,42.805,6.029,0.017,-0.038,0.004,107.0,104.0,103.0,13.4,1505.2,328.5,-0.8,1.8,2470.812,13.28,0.041,155.9
2022-01-30T02:46:03,42.805,6.029,0.009,-0.024,-0.021,108.0,105.0,104.0,13.3,1505.2,323.7,-0.8,1.8,2469.949,13.28,0.025,159.4
2022-01-30T02:49:03,42.805,6.029,-0.004,-0.03,-0.012,106.0,106.0,104.0,13.4,1505.2,329.9,-0.8,1.8,2470.026,13.28,0.03,187.6
2022-01-30T02:52:03,42.805,6.029,0.002,-0.011,-0.005,106.0,107.0,103.0,13.4,1505.2,331.5,-0.7,1.8,2470.086,13.28,0.011,169.7
2022-01-30T02:55:03,42.805,6.029,0.014,-0.043,-0.029,105.0,106.0,104.0,13.4,1505.2,328.8,-0.8,1.9,2470.112,13.28,0.045,162.0
2022-01-30T02:58:03,42.805,6.029,0.007,-0.032,-0.023,107.0,106.0,105.0,13.4,1505.2,324.0,-0.8,1.8,2470.047,13.28,0.032,167.7
2022-01-30T03:04:03,42.805,6.029,0.016,-0.027,-0.02,105.0,107.0,104.0,13.4,1505.2,329.0,-0.8,1.8,2470.065,13.28,0.031,149.3
2022-01-30T03:07:03,42.805,6.029,0.011,-0.03,0.004,106.0,105.0,103.0,13.4,1505.2,328.7,-0.8,1.8,2470.047,13.28,0.031,159.9
2022-01-30T03:10:03,42.805,6.029,0.004,-0.023,0.003,107.0,105.0,103.0,13.4,1505.2,327.6,-0.7,1.8,2470.159,13.28,0.023,170.1
2022-01-30T03:13:03,42.805,6.029,0.0,-0.038,0.0,106.0,105.0,103.0,13.4,1505.2,325.4,-0.8,1.8,2470.131,13.28,0.038,180.0
2022-01-30T03:16:03,42.805,6.029,0.0,-0.026,-0.006,107.0,105.0,103.0,13.4,1505.2,326.1,-0.8,1.8,2470.198,13.28,0.026,180.0
2022-01-30T03:19:03,42.805,6.029,-0.022,-0.037,-0.031,106.0,105.0,103.0,13.4,1505.2,325.8,-0.7,1.8,2470.195,13.28,0.043,210.7
2022-01-30T03:22:03,42.805,6.029,-0.005,-0.008,-0.004,106.0,106.0,104.0,13.4,1505.2,328.7,-0.7,1.8,2470.241,13.28,0.009,212.0
2022-01-30T03:25:03,42.805,6.029,0.007,-0.02,-0.004,106.0,105.0,105.0,13.4,1505.2,330.3,-0.7,1.9,2470.284,13.28,0.021,160.7
2022-01-30T03:28:03,42.805,6.029,0.011,-0.026,-0.028,106.0,104.0,103.0,13.4,1505.2,325.0,-0.8,1.8,2470.278,13.28,0.028,157.1
2022-01-30T03:31:03,42.805,6.029,0.024,-0.016,0.01,108.0,106.0,103.0,13.4,1505.2,324.1,-0.7,1.8,2470.319,13.28,0.028,123.7
2022-01-30T03:34:03,42.805,6.029,0.021,-0.022,-0.012,106.0,107.0,103.0,13.4,1505.2,327.9,-0.8,1.8,2470.312,13.28,0.03,136.3
2022-01-30T03:37:03,42.805,6.029,-0.004,-0.034,-0.009,106.0,108.0,103.0,13.4,1505.2,325.8,-0.7,1.8,2470.355,13.28,0.034,186.7
2022-01-30T03:40:03,42.805,6.029,0.013,-0.029,0.0,105.0,105.0,103.0,13.4,1505.2,327.5,-0.8,1.8,2470.41,13.28,0.031,155.9
2022-01-30T03:43:03,42.805,6.029,-0.012,-0.024,-0.026,107.0,104.0,102.0,13.4,1505.2,329.4,-0.7,1.8,2470.385,13.28,0.026,206.6
2022-01-30T03:46:03,42.805,6.029,0.002,-0.021,-0.031,107.0,107.0,103.0,13.4,1505.2,329.1,-0.8,1.8,2470.439,13.28,0.021,174.6
2022-01-30T03:49:03,42.805,6.029,0.007,-0.019,0.002,106.0,106.0,104.0,13.3,1505.2,328.7,-0.7,1.9,2470.44,13.28,0.02,159.8
2022-01-30T03:52:03,42.805,6.029,0.015,-0.051,-0.006,105.0,106.0,103.0,13.4,1505.2,329.5,-0.8,1.8,2470.433,13.28,0.053,163.6
2022-01-30T03:55:03,42.805,6.029,0.0,-0.024,-0.026,105.0,105.0,103.0,13.4,1505.2,331.5,-0.7,1.8,2470.476,13.28,0.024,180.0
2022-01-30T03:58:03,42.805,6.029,-0.003,-0.027,-0.028,106.0,106.0,102.0,13.3,1505.2,329.2,-0.7,1.9,2470.452,13.28,0.027,186.3
2022-01-30T04:04:03,42.805,6.029,-0.016,-0.021,0.022,106.0,106.0,103.0,13.4,1505.2,327.8,-0.8,1.8,2470.477,13.28,0.026,217.3
2022-01-30T04:07:03,42.805,6.029,0.006,-0.03,0.005,107.0,105.0,103.0,13.3,1505.2,325.7,-0.7,1.8,2470.443,13.28,0.03,168.7
2022-01-30T04:10:03,42.805,6.029,0.001,-0.038,0.014,106.0,105.0,103.0,13.4,1505.2,328.0,-0.7,1.8,2470.439,13.28,0.038,178.5
2022-01-30T04:13:03,42.805,6.029,-0.009,-0.017,-0.02,107.0,106.0,103.0,13.4,1505.2,328.4,-0.7,1.8,2470.484,13.28,0.019,207.9
2022-01-30T04:16:03,42.805,6.029,0.005,-0.01,-0.026,106.0,106.0,103.0,13.4,1505.2,325.4,-0.7,1.8,2470.438,13.28,0.011,153.4
2022-01-30T04:19:03,42.805,6.029,-0.005,-0.021,0.002,107.0,105.0,104.0,13.4,1505.2,329.1,-0.8,1.8,2470.428,13.28,0.021,193.4
2022-01-30T04:22:03,42.805,6.029,-0.01,-0.026,-0.013,107.0,107.0,103.0,13.3,1505.2,329.0,-0.8,1.9,2470.467,13.28,0.027,201.0
2022-01-30T04:25:03,42.805,6.029,0.0,-0.008,0.005,106.0,105.0,104.0,13.3,1505.2,328.4,-0.7,1.8,2470.439,13.28,0.008,180.0
2022-01-30T04:28:03,42.805,6.029,0.001,-0.003,0.021,105.0,105.0,103.0,13.3,1505.2,327.9,-0.8,1.8,2470.447,13.28,0.003,161.6
2022-01-30T04:31:03,42.805,6.029,0.002,-0.008,-0.02,106.0,106.0,103.0,13.3,1505.2,329.4,-0.8,1.8,2470.428,13.28,0.008,166.0
2022-01-30T04:34:03,42.805,6.029,-0.001,-0.01,-0.012,107.0,105.0,103.0,13.4,1505.2,326.2,-0.7,1.8,2470.393,13.28,0.01,185.7
2022-01-30T04:37:03,42.805,6.029,0.0,-0.03,-0.016,106.0,105.0,104.0,13.4,1505.2,326.9,-0.8,1.9,2470.372,13.28,0.03,180.0
2022-01-30T04:40:03,42.805,6.029,-0.01,-0.021,-0.016,107.0,105.0,103.0,13.3,1505.2,327.9,-0.8,1.8,2470.367,13.28,0.023,205.5
2022-01-30T04:43:03,42.805,6.029,-0.007,-0.032,-0.038,106.0,105.0,103.0,13.4,1505.2,330.9,-0.7,1.8,2470.372,13.28,0.032,192.3
2022-01-30T04:46:03,42.805,6.029,0.023,-0.031,-0.034,105.0,106.0,104.0,13.4,1505.2,323.7,-0.8,1.9,2470.442,13.28,0.038,143.4
2022-01-30T04:49:03,42.805,6.029,0.007,-0.037,-0.01,106.0,106.0,102.0,13.3,1505.2,327.9,-0.8,1.8,2470.396,13.28,0.037,169.3
2022-01-30T04:52:03,42.805,6.029,0.011,-0.016,0.002,104.0,104.0,103.0,13.3,1505.2,327.3,-0.8,1.8,2470.411,13.28,0.019,145.5
2022-01-30T04:55:03,42.805,6.029,0.008,-0.027,-0.022,106.0,106.0,103.0,13.4,1505.2,331.8,-0.8,1.8,2470.449,13.28,0.028,163.5
2022-01-30T04:58:03,42.805,6.029,0.011,-0.02,-0.002,106.0,105.0,104.0,13.3,1505.2,327.7,-0.8,1.8,2470.478,13.28,0.022,151.2
2022-01-30T05:04:03,42.805,6.029,-0.001,-0.036,0.005,107.0,105.0,104.0,13.4,1505.2,331.5,-0.7,1.9,2470.424,13.28,0.036,181.6
2022-01-30T05:07:03,42.805,6.029,0.026,-0.021,-0.025,105.0,106.0,101.0,13.4,1505.2,331.4,-0.8,1.9,2470.433,13.28,0.033,128.9
2022-01-30T05:10:03,42.805,6.029,0.016,-0.029,-0.004,105.0,107.0,103.0,13.4,1505.2,327.8,-0.8,1.8,2470.433,13.28,0.033,151.1
2022-01-30T05:13:03,42.805,6.029,-0.002,-0.033,-0.01,107.0,106.0,103.0,13.3,1505.2,325.3,-0.8,1.8,2470.453,13.28,0.033,183.5
2022-01-30T05:16:03,42.805,6.029,0.016,-0.021,-0.007,107.0,105.0,103.0,13.3,1505.2,331.1,-0.7,1.8,2470.399,13.28,0.026,142.7
2022-01-30T05:19:03,42.805,6.029,0.023,-0.014,0.024,108.0,106.0,103.0,13.4,1505.2,325.7,-0.8,1.8,2470.443,13.28,0.026,121.3
2022-01-30T05:22:03,42.805,6.029,0.022,-0.016,-0.009,107.0,105.0,104.0,13.4,1505.2,327.3,-0.8,1.8,2470.412,13.28,0.027,126.0
2022-01-30T05:25:03,42.805,6.029,0.017,-0.02,-0.018,107.0,105.0,104.0,13.4,1505.2,330.8,-0.7,1.8,2470.425,13.28,0.026,139.6
2022-01-30T05:28:03,42.805,6.029,0.009,-0.045,-0.012,106.0,106.0,103.0,13.4,1505.2,325.9,-0.8,1.8,2470.451,13.28,0.045,168.7
2022-01-30T05:31:03,42.805,6.029,-0.004,-0.035,-0.021,106.0,104.0,104.0,13.4,1505.2,325.9,-0.7,1.8,2470.492,13.28,0.035,186.5
2022-01-30T05:34:03,42.805,6.029,0.002,-0.039,-0.003,106.0,105.0,103.0,13.4,1505.2,330.8,-0.8,1.8,2470.516,13.28,0.039,177.1
2022-01-30T05:37:03,42.805,6.029,0.007,-0.037,-0.023,105.0,105.0,103.0,13.4,1505.2,329.4,-0.7,1.8,2470.502,13.28,0.037,169.3
2022-01-30T05:40:03,42.805,6.029,-0.002,-0.028,-0.016,107.0,105.0,103.0,13.3,1505.2,330.6,-0.8,1.8,2470.536,13.28,0.028,184.1
2022-01-30T05:43:03,42.805,6.029,0.021,-0.027,-0.014,106.0,106.0,103.0,13.4,1505.2,329.0,-0.8,1.8,2470.588,13.28,0.034,142.1
2022-01-30T05:46:03,42.805,6.029,0.017,-0.015,-0.025,106.0,106.0,104.0,13.4,1505.2,326.1,-0.7,1.8,2470.552,13.28,0.022,131.4
2022-01-30T05:49:03,42.805,6.029,0.016,-0.012,0.012,106.0,106.0,104.0,13.4,1505.2,326.7,-0.8,1.8,2470.592,13.28,0.02,126.9
2022-01-30T05:52:03,42.805,6.029,-0.001,-0.01,-0.005,107.0,105.0,104.0,13.4,1505.2,329.7,-0.8,1.8,2470.567,13.28,0.01,185.7
2022-01-30T05:55:03,42.805,6.029,0.033,-0.02,-0.02,108.0,106.0,103.0,13.3,1505.2,328.4,-0.8,1.8,2470.626,13.28,0.038,121.2
2022-01-30T05:58:03,42.805,6.029,0.005,-0.038,-0.01,106.0,105.0,103.0,13.3,1505.2,323.3,-0.7,1.8,2470.613,13.28,0.038,172.5
2022-01-30T06:04:04,42.805,6.029,0.007,-0.033,-0.023,105.0,105.0,103.0,13.4,1505.2,330.4,-0.8,1.8,2470.661,13.28,0.033,168.0
2022-01-30T06:07:03,42.805,6.029,0.038,-0.012,-0.013,106.0,106.0,104.0,13.4,1505.2,331.6,-0.8,1.9,2470.629,13.28,0.039,107.5
2022-01-30T06:10:03,42.805,6.029,0.015,-0.024,0.002,106.0,105.0,103.0,13.3,1505.2,330.3,-0.7,1.8,2470.654,13.28,0.028,148.0
2022-01-30T06:13:03,42.805,6.029,0.014,-0.02,-0.012,106.0,106.0,103.0,13.3,1505.2,328.5,-0.7,1.8,2470.643,13.28,0.024,145.0
2022-01-30T06:16:03,42.805,6.029,0.017,-0.014,-0.025,106.0,106.0,103.0,13.4,1505.2,326.4,-0.7,1.8,2470.659,13.28,0.022,129.5
2022-01-30T06:19:03,42.805,6.029,-0.021,-0.014,0.007,105.0,106.0,103.0,13.3,1505.2,325.7,-0.7,1.8,2470.589,13.28,0.025,236.3
2022-01-30T06:22:03,42.805,6.029,0.04,-0.027,-0.019,106.0,105.0,102.0,13.4,1505.2,325.6,-0.7,1.8,2470.686,13.28,0.048,124.0
2022-01-30T06:25:03,42.805,6.029,0.025,-0.041,-0.016,105.0,105.0,103.0,13.4,1505.2,329.0,-0.8,1.8,2470.634,13.28,0.048,148.6
2022-01-30T06:28:03,42.805,6.029,0.021,-0.045,-0.013,107.0,105.0,103.0,13.3,1505.2,324.5,-0.8,1.8,2470.669,13.28,0.049,155.0
2022-01-30T06:31:03,42.805,6.029,-0.002,-0.04,-0.036,106.0,105.0,103.0,13.4,1505.2,326.3,-0.7,1.8,2470.642,13.28,0.04,182.9
2022-01-30T06:34:03,42.805,6.029,-0.005,-0.013,-0.026,105.0,105.0,103.0,13.3,1505.2,326.8,-0.8,1.9,2470.664,13.28,0.013,201.0
2022-01-30T06:37:03,42.805,6.029,0.023,-0.024,-0.016,107.0,104.0,104.0,13.4,1505.2,328.9,-0.7,1.8,2470.646,13.28,0.033,136.2
2022-01-30T06:40:03,42.805,6.029,0.03,-0.035,-0.009,106.0,104.0,104.0,13.4,1505.2,326.0,-0.8,1.8,2470.642,13.28,0.046,139.4
2022-01-30T06:43:03,42.805,6.029,0.004,-0.019,0.0,106.0,105.0,103.0,13.3,1505.2,327.0,-0.7,1.8,2470.626,13.28,0.019,168.1
2022-01-30T06:46:03,42.805,6.029,0.017,-0.028,-0.014,105.0,105.0,104.0,13.3,1505.2,328.1,-0.7,1.8,2470.691,13.28,0.032,148.7
2022-01-30T06:49:03,42.805,6.029,0.021,-0.013,0.0,106.0,104.0,103.0,13.4,1505.2,327.0,-0.7,1.8,2470.698,13.28,0.024,121.8
2022-01-30T06:52:03,42.805,6.029,0.04,-0.013,-0.013,105.0,105.0,103.0,13.3,1505.2,326.4,-0.8,1.8,2470.679,13.28,0.042,108.0
2022-01-30T06:55:03,42.805,6.029,0.014,-0.013,-0.015,107.0,105.0,103.0,13.3,1505.2,328.9,-0.8,1.8,2470.652,13.28,0.019,132.9
2022-01-30T06:58:03,42.805,6.029,0.009,-0.031,-0.018,106.0,105.0,103.0,13.3,1505.2,329.1,-0.7,1.8,2470.636,13.28,0.032,163.8
2022-01-30T07:04:03,42.805,6.029,0.01,-0.013,-0.029,106.0,106.0,104.0,13.3,1505.2,331.1,-0.7,1.8,2470.6,13.28,0.016,142.4
2022-01-30T07:07:03,42.805,6.029,0.03,-0.019,0.003,107.0,105.0,103.0,13.4,1505.2,326.6,-0.7,1.8,2470.543,13.28,0.035,122.3
2022-01-30T07:10:03,42.805,6.029,0.031,-0.022,-0.023,107.0,107.0,103.0,13.3,1505.2,326.7,-0.8,1.8,2470.571,13.28,0.038,125.4
2022-01-30T07:13:03,42.805,6.029,0.026,-0.021,-0.014,106.0,106.0,103.0,13.3,1505.2,329.3,-0.8,1.8,2470.544,13.28,0.033,128.9
2022-01-30T07:16:03,42.805,6.029,0.027,-0.044,-0.005,105.0,105.0,104.0,13.4,1505.2,329.7,-0.8,1.8,2470.566,13.28,0.051,148.5
2022-01-30T07:19:03,42.805,6.029,0.025,-0.029,0.012,107.0,104.0,103.0,13.3,1505.2,326.2,-0.8,1.8,2470.481,13.28,0.038,139.2
2022-01-30T07:22:03,42.805,6.029,0.008,-0.014,-0.021,107.0,105.0,103.0,13.4,1505.2,323.7,-0.8,1.8,2470.485,13.28,0.016,150.3
2022-01-30T07:25:03,42.805,6.029,0.042,-0.03,-0.035,105.0,106.0,103.0,13.4,1505.2,325.6,-0.7,1.8,2470.639,13.28,0.051,125.5
2022-01-30T07:28:03,42.805,6.029,0.025,-0.034,-0.022,105.0,104.0,103.0,13.4,1505.2,328.5,-0.8,1.8,2470.762,13.28,0.042,143.7
2022-01-30T07:31:03,42.805,6.029,0.019,-0.012,-0.007,105.0,105.0,103.0,13.3,1505.2,323.4,-0.8,1.8,2470.516,13.28,0.022,122.3
2022-01-30T07:34:03,42.805,6.029,0.03,-0.028,-0.023,105.0,107.0,103.0,13.4,1505.2,327.2,-0.8,1.8,2470.312,13.28,0.041,133.0
2022-01-30T07:37:03,42.805,6.029,0.023,-0.027,-0.018,106.0,105.0,104.0,13.4,1505.2,328.9,-0.8,1.8,2470.28,13.28,0.035,139.6
2022-01-30T07:40:03,42.805,6.029,0.019,-0.033,-0.022,106.0,106.0,105.0,13.4,1505.2,330.4,-0.7,1.8,2470.315,13.28,0.038,150.1
2022-01-30T07:43:03,42.805,6.029,0.037,-0.021,0.009,107.0,105.0,103.0,13.4,1505.2,323.9,-0.7,1.8,2470.375,13.28,0.042,119.6
2022-01-30T07:46:03,42.805,6.029,0.021,-0.034,-0.028,105.0,105.0,104.0,13.4,1505.2,323.8,-0.7,1.8,2470.341,13.28,0.039,148.3
2022-01-30T07:49:03,42.805,6.029,0.025,-0.041,-0.017,107.0,106.0,104.0,13.4,1505.2,328.0,-0.8,1.8,2470.322,13.28,0.048,148.6
2022-01-30T07:52:03,42.805,6.029,0.011,-0.018,-0.017,106.0,105.0,103.0,13.4,1505.2,325.6,-0.7,1.8,2470.341,13.28,0.021,148.6
2022-01-30T07:55:03,42.805,6.029,0.028,-0.012,-0.023,106.0,104.0,103.0,13.4,1505.2,327.4,-0.8,1.8,2470.167,13.28,0.03,113.2
2022-01-30T07:58:03,42.805,6.029,0.017,-0.035,-0.062,106.0,106.0,104.0,13.4,1505.2,325.4,-0.7,1.8,2470.12,13.28,0.038,154.1
2022-01-30T08:04:03,42.805,6.029,0.032,-0.027,-0.037,107.0,106.0,102.0,13.3,1505.2,324.5,-0.8,1.8,2470.098,13.28,0.041,130.2
2022-01-30T08:07:03,42.805,6.029,0.034,-0.031,-0.02,106.0,105.0,103.0,13.3,1505.2,325.7,-0.8,1.8,2470.171,13.28,0.046,132.4
2022-01-30T08:10:03,42.805,6.029,0.005,-0.034,-0.013,107.0,104.0,104.0,13.3,1505.2,329.7,-0.7,1.8,2470.127,13.28,0.034,171.6
2022-01-30T08:13:03,42.805,6.029,0.01,-0.033,-0.015,108.0,105.0,102.0,13.4,1505.2,325.7,-0.8,1.8,2470.175,13.28,0.034,163.1
2022-01-30T08:16:03,42.805,6.029,0.026,-0.051,-0.015,106.0,106.0,104.0,13.4,1505.2,324.8,-0.7,1.8,2470.198,13.28,0.057,153.0
2022-01-30T08:19:03,42.805,6.029,0.017,-0.034,-0.029,106.0,106.0,103.0,13.4,1505.2,326.7,-0.7,1.8,2470.236,13.28,0.038,153.4
2022-01-30T08:22:03,42.805,6.029,0.012,-0.029,-0.018,107.0,104.0,104.0,13.4,1505.2,329.3,-0.7,1.8,2470.275,13.28,0.031,157.5
2022-01-30T08:25:03,42.805,6.029,0.016,-0.019,-0.003,106.0,105.0,103.0,13.4,1505.2,329.6,-0.8,1.8,2470.296,13.28,0.024,139.9
2022-01-30T08:28:03,42.805,6.029,0.01,-0.054,-0.021,106.0,107.0,103.0,13.4,1505.2,328.3,-0.7,1.8,2470.312,13.28,0.054,169.5
2022-01-30T08:31:03,42.805,6.029,-0.005,-0.014,0.011,108.0,106.0,103.0,13.3,1505.2,328.4,-0.7,1.8,2470.325,13.28,0.014,199.6
2022-01-30T08:34:03,42.805,6.029,0.005,-0.046,-0.029,106.0,105.0,104.0,13.4,1505.2,326.3,-0.8,1.8,2470.345,13.28,0.046,173.8
2022-01-30T08:37:03,42.805,6.029,0.002,-0.044,-0.002,105.0,106.0,104.0,13.4,1505.2,328.7,-0.8,1.8,2470.381,13.28,0.044,177.4
2022-01-30T08:40:03,42.805,6.029,0.012,-0.032,-0.025,107.0,107.0,103.0,13.4,1505.2,325.8,-0.8,1.9,2470.364,13.28,0.034,159.4
2022-01-30T08:43:03,42.805,6.029,0.0,-0.034,-0.04,105.0,106.0,103.0,13.4,1505.2,329.3,-0.8,1.9,2470.36,13.28,0.034,180.0
2022-01-30T08:46:03,42.805,6.029,0.017,-0.032,-0.055,107.0,105.0,104.0,13.3,1505.2,323.6,-0.8,1.8,2470.326,13.28,0.036,152.0
2022-01-30T08:49:03,42.805,6.029,0.014,-0.026,0.005,106.0,106.0,104.0,13.4,1505.2,329.1,-0.7,1.8,2470.338,13.28,0.029,151.7
2022-01-30T08:52:03,42.805,6.029,0.023,-0.039,-0.035,107.0,105.0,103.0,13.4,1505.2,329.6,-0.7,1.8,2470.335,13.28,0.045,149.5
2022-01-30T08:55:03,42.805,6.029,0.007,-0.037,-0.037,106.0,106.0,103.0,13.4,1505.2,329.3,-0.7,1.9,2470.33,13.28,0.037,169.3
2022-01-30T08:58:03,42.805,6.029,0.027,-0.037,-0.029,106.0,106.0,103.0,13.4,1505.2,324.8,-0.7,1.8,2470.386,13.28,0.045,143.9
2022-01-30T09:04:03,42.805,6.029,0.016,-0.042,0.002,106.0,106.0,103.0,13.4,1505.2,324.7,-0.8,1.8,2470.357,13.28,0.044,159.1
2022-01-30T09:07:03,42.805,6.029,0.011,-0.037,-0.028,106.0,105.0,103.0,13.4,1505.2,329.3,-0.7,1.8,2470.362,13.28,0.038,163.4
2022-01-30T09:10:03,42.805,6.029,0.051,-0.037,-0.017,106.0,104.0,103.0,13.3,1505.2,329.0,-0.7,1.8,2470.332,13.28,0.063,126.0
2022-01-30T09:13:03,42.805,6.029,0.023,-0.02,-0.007,105.0,105.0,104.0,13.4,1505.2,323.9,-0.7,1.8,2470.362,13.28,0.03,131.0
2022-01-30T09:16:03,42.805,6.029,0.024,-0.036,-0.042,106.0,104.0,103.0,13.3,1505.2,330.7,-0.8,1.8,2470.333,13.28,0.043,146.3
2022-01-30T09:19:03,42.805,6.029,0.0,-0.048,-0.043,105.0,106.0,103.0,13.4,1505.2,329.5,-0.8,1.8,2470.372,13.28,0.048,180.0
2022-01-30T09:22:03,42.805,6.029,0.003,-0.046,-0.043,106.0,105.0,103.0,13.4,1505.2,325.6,-0.7,1.8,2470.367,13.28,0.046,176.3
2022-01-30T09:25:03,42.805,6.029,0.009,-0.034,-0.011,106.0,104.0,104.0,13.4,1505.2,329.8,-0.7,1.8,2470.306,13.28,0.035,165.2
2022-01-30T09:28:03,42.805,6.029,0.003,-0.022,-0.005,106.0,106.0,102.0,13.4,1505.2,326.1,-0.8,1.8,2470.363,13.28,0.022,172.2
2022-01-30T09:31:03,42.805,6.029,0.0,-0.005,0.004,106.0,106.0,104.0,13.3,1505.2,325.8,-0.8,1.8,2470.427,13.28,0.005,180.0
2022-01-30T09:34:03,42.805,6.029,0.026,-0.022,-0.033,106.0,105.0,103.0,13.3,1505.2,326.6,-0.8,1.8,2470.4,13.28,0.034,130.2
2022-01-30T09:37:03,42.805,6.029,0.018,-0.025,0.0,107.0,106.0,103.0,13.4,1505.2,327.3,-0.7,1.8,2470.385,13.28,0.03,144.2
2022-01-30T09:40:03,42.805,6.029,0.016,-0.018,-0.005,107.0,105.0,104.0,13.4,1505.2,328.2,-0.7,1.9,2470.412,13.28,0.024,138.4
2022-01-30T09:43:03,42.805,6.029,0.016,-0.022,-0.02,106.0,106.0,103.0,13.4,1505.2,330.7,-0.7,1.8,2470.447,13.28,0.027,144.0
2022-01-30T09:46:03,42.805,6.029,0.032,-0.028,-0.002,106.0,106.0,103.0,13.3,1505.2,329.8,-0.8,1.8,2470.401,13.28,0.042,131.2
2022-01-30T09:49:03,42.805,6.029,0.02,-0.024,-0.016,106.0,106.0,104.0,13.3,1505.2,323.8,-0.8,1.8,2470.46,13.28,0.031,140.2
2022-01-30T09:52:03,42.805,6.029,0.022,-0.032,-0.039,106.0,105.0,103.0,13.4,1505.2,325.2,-0.7,1.8,2470.456,13.28,0.038,145.5
2022-01-30T09:55:03,42.805,6.029,0.002,-0.029,-0.036,106.0,106.0,103.0,13.3,1505.2,329.9,-0.7,1.8,2470.48,13.28,0.029,176.1